Overview Statistics Trail Chart Weather Telemetry Raw packets
 

This is the latest recevied weather packets stored in our database for station/object KB7STN. If no packets are shown the sender has not sent any weather packets the latest 10 day(s).

<< 41 42 43 44 45 46 47 >>
Time Temp. Humidity Pressure Rain* Wind** Luminosity Snow
1788414019 19.44° C 29% 1015.3 hPa 0 mm - - -
1788413719 20° C 32% 1015.4 hPa 0 mm - - -
1788413419 20° C 25% 1015.3 hPa 0 mm - - -
1788413119 20.56° C 25% 1015.2 hPa 0 mm - - -
1788412819 20.56° C 24% 1015.2 hPa 0 mm - - -
1788412519 21.11° C 22% 1015.2 hPa 0 mm - - -
1788412219 21.11° C 22% 1015.2 hPa 0 mm - - -
1788411919 21.11° C 23% 1015.3 hPa 0 mm - - -
1788411619 21.67° C 23% 1015.3 hPa 0 mm - - -
1788411319 22.22° C 21% 1015.3 hPa 0 mm - - -
1788411019 22.22° C 19% 1015.4 hPa 0 mm - - -
1788410719 22.78° C 18% 1015.5 hPa 0 mm - - -
1788410419 22.78° C 17% 1015.5 hPa 0 mm - - -
1788410119 23.33° C 16% 1015.6 hPa 0 mm - - -
1788409819 23.33° C 15% 1015.5 hPa 0 mm - - -
1788409519 23.33° C 15% 1015.4 hPa 0 mm - - -
1788409219 23.33° C 15% 1015.4 hPa 0 mm - - -
1788408919 23.33° C 15% 1015.4 hPa 0 mm - - -
1788408619 23.33° C 15% 1015.3 hPa 0 mm - - -
1788408319 23.33° C 15% 1015.2 hPa 0 mm - - -
1788408019 23.33° C 15% 1015.2 hPa 0 mm - - -
1788407719 23.33° C 15% 1014.9 hPa 0 mm - - -
1788407419 23.33° C 15% 1014.9 hPa 0 mm - - -
1788407119 23.33° C 15% 1014.9 hPa 0 mm - - -
1788406819 23.33° C 15% 1014.9 hPa 0 mm - - -

* Rain latest hour (hover to see other rain measurements)
** Current wind speed in m/s (hover to see current wind gust speed)